SCP
0 0 0 0 0 0 0 0 0 0 0 0 0 0 0 0 0 0 0 0 0 0 0 0 0 0 0 0 0 0 0 0 0 0 0 0 0 0 0 0 0 0 0
0 0 0 0 0 0 0 0 0 0 0 0 0 0 0 0 0 0 0 0 0 0 0 0 0 0 0 0 0 0 0 0 0 0 0 0 0 0 0 0 0 0 0
0 0 0 0 0 0 0 0 0 0 0 0 0 0 0 0 0 0 0 0 0 0 0 0 0 0 0 0 0 0 0 0 0 0 0 0 0 0 0 0 0 0 0
0 0 0 0 0 0 0 0 0 0 0 0 0 0 0 0 0 0 0 0 0 0 0 0 0 0 0 0 0 0 0 0 0 0 0 0 0 0 0 0 0 0 0
0 0 0 0 0 0 0 0 0 0 0 0 0 0 0 0 0 0 0 0 0 0 0 0 0 0 0 0 0 0 0 0 0 0 0 0 0 0 0 0 0 0 0
0 0 0 0 0 0 0 0 0 0 0 0 0 0 0 0 0 0 0 0 0 0 0 0 0 0 0 0 0 0 0 0 0 0 0 0 0 0 0 0 0 0 0
0 0 0 0 0 0 0 0 0 0 0 0 0 0 0 0 0 0 0 0 0 0 0 0 0 0 0 0 0 0 0 0 0 0 0 0 0 0 0 0 0 0 0
0 0 0 0 0 0 0 0 0 0 0 0 0 0 0 0 0 0 0 0 0 0 0 0 0 0 0 0 0 0 0 0 0 0 0 0 0 0 0 0 0 0 0
0 0 0 0 0 0 0 0 0 0 0 0 0 0 0 0 0 0 0 0 0 0 0 0 0 0 0 0 0 0 0 0 0 0 0 0 0 0 0 0 0 0 0
0 0 0 0 0 0 0 0 0 0 0 0 0 0 0 0 0 0 0 0 0 0 0 0 0 0 0 0 0 0 0 0 0 0 0 0 0 0 0 0 0 0 0
0 0 0 0 0 0 -0 -0 -0 0 0 0 0 0 0 0 0 0 0 0 0 0 0 0 0 0 0 0 0 0 0 0 0 0 0 0 0 0 0 0 0 0 0
-0 0 0 0 0 -0 -0 -0 -0 0 0 0 0 0 0 0 0 0 0 0 0 0 0 0 0 0 0 0 0 0 0 0 0 0 0 0 0 0 0 0 0 0 0
0 0 0 0 -0 -0 -0 -0 -0 0 0 0 0 0 0 0 0 0 0 0 0 0 0 0 0 0 0 0 0 0 0 0 0 0 0 0 0 0 0 0 0 0 0
0 0 0 0 0 0 0 0 0 0 0 0 0 0 0 0 0 0 0 0 0 0 0 0 0 0 0 0 0 0 0 0 0 0 0 0 0 0 0 0 0 0 0
0 0 0 0 0 0 0 0 0 0 0 0 0 0 0 0 0 0 0 0 0 0 0 0 0 0 0 0 0 0 0 0 0 0 0 0 0 0 0 0 0 0 0
0 0 0 0 0 0 0 0 0 0 0 0 0 0 0 0 0 0 0 0 0 0 0 0 0 0 0 0 0 0 0 0 0 0 0 0 0 0 0 0 0 0 0
0 0 0 0 0 0 0 0 0 0 0 0 0 0 0 0 0 0 0 0 0 0 0 0 0 0 0 0 0 0 0 0 0 0 0 0 0 0 0 0 0 0 0
0 0 0 0 0 0 0 0 0 0 0 0 0 0 0 0 0 0 0 0 0 0 0 0 0 0 0 0 0 0 0 0 0 0 0 0 0 0 0 0 0 0 0
0 0 0 0 0 0 0 0 0 0 0 0 0 0 0 0 0 0 0 0 0 0 0 0 0 0 0 0 0 0 0 0 0 0 0 0 0 0 0 0 0 0 0
0 0 0 0 0 0 0 0 0 0 0 0 0 0 0 0 0 0 0 0 0 0 0 0 0 0 0 0 0 0 0 0 0 0 0 0 0 0 0 0 0 0 0
0 0 0 0 0 0 0 0 0 0 0 0 0 0 0 0 0 0 0 0 0 0 0 0 0 0 0 0 0 0 0 0 0 0 0 0 0 0 0 0 0 0 0
0 0 0 0 0 0 0 0 0 0 0 0 0 0 0 0 0 0 0 0 0 0 0 0 0 0 0 0 0 0 0 0 0 0 0 0 0 0 0 0 0 0 0
0 0 0 0 0 0 0 0 0 0 0 0 0 0 0 0 0 0 0 0 0 0 0 0 0 0 0 0 0 0 0 0 0 0 0 0 0 0 0 0 0 0 0
0 0 0 0 0 0 0 0 0 0 0 0 0 0 0 0 0 0 0 0 0 0 0 0 0 0 0 0 0 0 0 0 0 0 0 0 0 0 0 0 0 0 0
0 0 0 0 0 0 0 0 0 0 0 0 0 0 0 0 0 0 0 0 0 0 0 0 0 0 0 0 0 0 0 0 0 0 0 0 0 0 0 0 0 0 0
0 0 0 0 0 0 0 0 0 0 0 0 0 0 0 0 0 0 0 0 0 0 0 0 0 0 0 0 0 0 0 0 0 0 0 0 0 0 0 0 0 0 0
Wind_Speed
7 7 7 7 7 6 5 6 6 5 5 5 4 3 2 1 1 2 2 3 3 3 3 4 4 5 4 3 3 3 3 3 4 3 2 2 3 3 2 2 4 5 6
7 7 7 7 8 7 7 7 7 7 6 6 6 5 5 4 4 3 3 3 3 4 4 5 5 5 5 4 4 4 3 3 4 5 3 3 4 4 4 4 5 5 5
6 6 7 7 8 8 8 8 8 7 7 8 8 8 7 7 6 6 5 5 5 4 4 5 5 6 6 4 4 4 3 3 3 4 3 2 2 3 4 4 6 5 6
6 6 7 7 8 7 7 8 9 8 8 9 9 9 9 8 8 8 8 8 7 7 6 5 5 5 5 5 4 4 4 4 3 3 2 2 2 3 3 3 3 3 3
6 6 7 7 7 7 7 8 9 9 9 8 9 9 9 7 7 8 8 8 8 8 7 6 5 6 7 5 4 4 4 3 2 2 2 2 2 2 2 2 2 2 3
6 6 6 6 7 7 7 8 9 9 9 9 9 9 9 8 12 13 10 8 7 7 7 6 6 6 6 6 7 6 4 3 2 2 1 1 2 2 1 0 0 1 3
5 6 6 6 7 7 8 8 9 8 9 9 9 9 10 11 15 15 15 9 8 7 7 6 5 6 7 5 4 3 1 1 2 1 1 1 1 0 1 1 2 3 4
5 6 6 6 7 7 8 8 8 7 8 8 9 9 9 12 16 16 15 9 8 7 6 5 4 3 3 2 1 1 1 1 1 1 1 1 1 1 1 2 3 4 5
6 6 6 6 7 7 8 7 7 7 8 7 7 8 9 9 13 13 11 5 5 4 3 3 3 2 2 3 2 1 2 3 2 1 3 6 8 9 7 2 2 3 5
5 5 5 5 6 6 6 6 6 6 7 6 7 6 6 5 9 10 7 2 2 1 1 1 4 4 4 5 4 3 2 2 4 4 5 6 5 6 9 4 3 3 3
4 5 5 5 5 5 5 4 4 5 5 5 4 3 3 4 6 8 8 3 2 2 2 2 2 4 5 6 5 3 4 3 2 3 3 3 3 3 2 1 1 3 4
3 4 4 3 3 4 4 3 3 3 3 3 3 2 2 3 4 5 7 7 6 3 2 2 2 4 6 7 4 5 7 5 2 2 2 3 2 2 2 3 3 4 5
4 4 4 3 3 3 3 2 2 2 2 2 2 2 1 1 2 4 4 5 5 2 1 2 4 6 6 5 6 6 5 2 2 2 2 3 3 3 3 3 5 6 7
5 4 3 3 3 3 3 3 3 2 2 2 2 1 0 1 1 2 3 3 5 4 3 4 6 7 5 6 5 4 2 3 2 2 3 3 3 3 4 3 4 4 6
5 4 3 3 3 4 4 3 4 3 3 2 1 1 2 1 2 4 3 2 3 3 4 3 3 3 2 2 2 2 3 3 3 2 3 4 5 4 5 4 4 4 7
5 4 3 3 3 3 3 3 5 4 5 5 4 2 2 2 3 5 6 7 8 8 5 3 3 2 2 2 3 3 3 3 3 3 3 4 6 6 7 6 6 7 8
5 5 3 3 3 3 3 3 2 1 1 1 1 2 2 4 4 5 6 7 9 8 3 3 3 3 3 3 3 3 4 4 3 3 4 5 6 7 7 7 7 8 9
6 5 5 3 3 3 2 2 1 1 1 2 3 3 3 4 5 6 6 6 5 4 2 2 3 3 3 3 4 4 4 4 4 5 5 6 6 7 8 8 8 9 9
5 4 4 3 3 3 3 2 1 1 1 2 1 2 4 5 7 7 6 2 3 3 3 3 3 4 4 4 4 4 5 5 6 6 6 7 7 7 8 8 8 13 12
5 7 6 4 3 3 2 2 2 2 2 2 2 2 1 2 2 3 2 2 3 3 4 4 4 4 4 4 5 5 5 6 6 6 7 7 7 7 9 10 10 10 10
5 5 7 4 3 3 3 2 2 2 2 2 2 3 4 2 3 3 3 3 3 4 4 4 4 4 5 5 5 5 7 7 7 7 7 7 7 8 9 9 10 10 11
5 5 4 4 3 3 3 2 2 2 3 3 2 3 7 3 3 3 3 4 3 4 4 4 4 5 5 5 5 6 7 8 8 8 8 8 8 9 9 10 10 10 11
5 5 4 4 3 5 4 3 3 3 3 3 3 3 3 3 3 3 4 4 4 4 4 4 5 6 6 5 6 6 8 9 9 8 9 9 9 9 9 11 13 13 14
5 6 5 4 4 4 3 3 3 3 3 3 3 3 3 3 3 4 4 4 4 5 5 5 6 9 11 9 7 7 8 10 10 9 12 12 12 11 11 12 14 16 15
5 5 5 5 4 4 4 4 3 3 3 3 3 3 3 3 4 4 4 5 5 6 7 7 6 8 10 12 11 10 15 21 20 14 12 11 13 14 14 15 15 16 16
6 6 5 4 4 4 4 4 4 4 4 3 3 3 4 4 4 5 5 5 5 5 7 7 8 10 11 11 13 16 20 22 22 23 16 12 13 13 14 14 17 17 17
Wind_Direction
345 339 338 338 339 338 339 341 341 342 349 354 356 2 17 48 97 136 147 148 160 144 132 145 143 133 133 129 126 130 133 130 144 149 148 149 160 180 205 242 252 254 262
340 343 352 356 355 357 360 358 2 10 13 16 24 31 40 47 56 76 94 103 122 128 123 125 131 129 126 126 129 130 127 117 139 152 163 168 186 196 210 233 249 253 250
346 360 7 7 5 5 6 8 14 22 27 32 39 42 44 46 52 58 70 74 79 92 109 123 128 130 127 124 123 122 118 104 94 130 140 153 184 201 211 234 244 251 257
5 19 17 13 11 10 15 24 27 31 37 42 47 49 49 51 55 60 67 71 73 73 78 91 106 122 127 125 119 117 115 107 97 109 123 161 194 200 197 224 249 249 263
21 27 23 20 21 23 29 36 37 38 43 46 52 53 51 54 61 71 74 78 80 80 76 76 87 109 125 123 125 124 124 118 124 139 166 182 199 201 209 211 235 278 284
33 33 32 33 34 35 40 46 48 46 46 50 55 58 59 63 75 80 82 76 78 80 78 69 73 78 100 108 124 134 147 146 160 168 177 204 233 227 185 125 18 325 297
42 41 42 44 46 46 51 57 57 55 56 57 60 65 68 71 76 79 80 75 73 69 67 64 62 57 53 48 66 78 81 242 207 166 193 255 283 112 95 333 279 263 258
51 47 46 51 55 55 57 59 59 59 60 61 61 62 67 70 75 79 80 74 73 69 64 61 68 65 56 41 32 59 318 294 263 164 159 273 310 284 227 244 253 274 273
58 55 51 56 62 62 62 58 58 66 66 62 62 62 64 65 71 75 77 72 77 76 72 60 54 64 39 11 13 8 328 317 311 292 279 284 286 285 276 264 278 294 294
64 64 62 64 70 72 71 68 67 73 76 77 73 69 70 68 68 68 70 73 80 85 100 91 59 45 20 16 21 9 351 10 13 349 320 306 295 285 284 248 205 227 264
84 82 79 77 81 83 82 80 83 85 86 84 84 82 80 78 67 59 53 48 32 39 45 62 64 30 6 357 359 351 324 338 330 304 297 295 295 289 290 287 212 200 224
114 105 102 102 105 106 105 104 108 109 104 101 94 81 67 70 71 55 48 40 30 29 35 47 30 3 342 331 326 314 320 327 311 298 301 303 305 298 288 282 275 261 244
134 125 125 123 117 120 120 118 106 94 93 91 94 93 75 76 70 52 36 25 18 22 20 2 338 329 330 330 327 324 328 322 309 310 305 292 279 271 274 275 270 262 257
144 142 138 127 111 81 58 58 64 47 54 63 73 73 23 27 50 34 9 3 4 6 1 331 321 313 308 292 301 316 301 267 275 263 275 280 285 286 280 272 273 279 279
144 139 128 122 117 98 75 62 80 64 71 78 69 54 50 27 22 19 12 8 359 334 338 329 315 311 314 314 311 306 308 312 313 292 287 294 297 294 290 292 282 283 278
151 155 154 149 137 135 130 99 81 107 80 70 63 50 19 6 354 352 344 337 332 326 334 319 312 323 330 328 320 313 309 305 294 287 288 291 294 294 294 292 285 282 282
161 162 157 157 156 157 151 154 171 167 158 125 68 9 344 330 330 328 326 326 318 312 310 302 306 307 299 296 293 289 286 284 281 277 276 279 281 284 287 288 287 283 281
156 159 157 163 164 164 161 162 165 193 252 254 221 233 287 307 306 305 312 324 317 311 273 277 283 286 285 284 283 283 284 287 285 279 276 278 279 281 281 280 279 278 281
153 158 164 159 155 151 148 150 173 224 263 277 266 253 251 288 298 289 288 273 282 292 291 283 275 275 274 273 273 275 276 278 277 275 273 271 271 272 274 275 275 279 282
161 166 159 154 155 154 157 174 204 232 257 271 274 267 284 311 294 289 268 249 260 269 273 274 273 271 269 267 269 271 274 275 277 274 273 273 272 271 274 276 276 277 277
154 163 164 155 166 171 175 192 208 223 250 264 266 269 275 271 281 283 279 270 264 266 267 268 268 270 268 267 265 267 271 274 273 273 273 272 271 272 272 272 273 274 276
155 160 166 172 170 173 181 192 204 226 251 264 266 281 290 273 264 270 268 269 267 264 260 261 263 261 259 260 263 268 272 275 274 272 272 272 273 275 276 275 275 276 276
157 161 167 170 169 189 193 195 211 229 245 254 259 260 265 258 260 266 267 268 269 270 268 264 267 271 267 260 254 256 267 271 271 271 275 277 277 276 275 275 275 276 275
165 167 170 172 173 181 193 205 215 226 237 246 252 256 256 258 265 272 274 273 271 269 267 266 267 271 273 275 270 262 262 267 268 267 264 266 269 271 270 270 271 272 273
171 172 174 177 181 190 199 208 216 226 236 244 247 254 262 268 269 272 272 271 274 273 276 276 273 274 275 274 274 274 277 281 282 278 269 265 265 265 267 269 271 273 274
176 177 177 178 183 190 197 207 216 222 229 239 246 251 257 261 265 268 270 272 274 276 280 281 278 278 279 281 281 283 288 290 291 291 287 278 274 272 272 274 276 277 279